Helicity
299 215 165 154 154 146 145 121 105 121 146 146 142 128 102 92 91 97 78 52 53 47 44 53 95 145 184 208 188 152 113 61
310 202 185 183 158 139 136 131 122 129 146 172 141 114 109 100 82 75 84 83 69 58 52 75 143 148 166 175 185 166 102 70
252 208 189 215 196 152 166 145 137 154 156 187 148 116 105 93 90 85 79 81 82 77 78 98 179 127 156 158 150 118 114 88
258 225 218 246 234 197 229 212 186 172 157 173 126 107 107 103 94 90 89 86 81 83 98 123 172 128 158 184 134 111 103 93
241 280 264 267 286 276 280 265 216 174 177 156 135 119 124 121 111 100 89 91 95 101 106 112 140 141 178 173 152 117 84 75
308 307 322 324 333 308 300 269 225 188 172 151 162 131 131 126 106 101 97 100 112 101 110 138 179 153 159 171 157 129 101 84
347 392 359 388 356 323 298 267 244 189 183 179 174 133 135 130 102 102 95 124 116 125 130 150 195 180 170 179 161 128 110 92
363 378 414 433 372 321 285 276 253 224 198 204 168 136 140 140 128 102 100 112 116 134 138 178 202 204 198 183 158 135 123 114
376 434 457 411 373 375 278 269 256 253 228 227 202 151 140 153 143 114 88 110 145 162 188 210 247 243 216 195 174 148 137 126
406 416 524 457 407 353 327 260 263 264 256 242 206 173 165 159 158 134 129 172 181 204 212 222 241 267 250 196 171 154 138 126
482 403 463 476 462 417 337 295 297 275 286 280 272 207 191 190 169 174 204 211 224 253 234 239 238 263 251 216 184 160 133 119
489 438 413 456 472 423 402 396 290 345 283 296 280 312 245 229 233 239 257 284 283 290 295 257 239 262 274 271 230 175 173 142
484 499 438 506 481 504 503 446 432 371 340 316 297 288 278 274 287 292 289 280 286 273 307 311 311 348 405 376 292 209 199 167
534 492 485 487 467 456 511 525 527 423 425 387 332 333 338 335 321 303 278 288 280 307 364 395 381 381 384 406 330 276 227 184
579 548 530 497 443 493 540 633 567 486 404 386 383 385 357 347 328 326 298 291 302 300 339 412 459 329 345 342 350 275 345 273
468 558 548 510 501 491 533 576 557 502 485 505 477 402 368 325 297 329 317 319 290 282 324 405 482 396 386 376 323 303 352 337
349 416 444 548 545 504 521 471 421 497 521 481 432 415 343 345 267 318 328 340 302 294 319 343 425 470 456 440 375 342 350 333
328 374 463 502 531 496 477 448 412 488 420 427 462 431 347 314 275 278 295 329 299 295 305 297 330 357 444 378 374 362 307 307
493 249 377 435 467 487 440 466 424 428 411 410 469 426 392 313 317 317 325 327 324 337 317 320 285 323 345 345 316 311 254 293
469 324 231 314 420 453 474 456 399 354 384 376 371 362 363 331 323 335 358 403 413 408 471 442 407 365 343 351 356 338 264 274
Wind_Speed
16 18 21 20 21 20 22 21 19 18 19 19 18 15 14 14 15 15 14 15 16 16 16 16 18 20 21 21 22 25 28 32
20 20 19 18 16 19 20 19 18 16 16 16 15 17 14 13 11 11 12 12 14 15 16 16 16 18 19 19 22 24 28 32
21 23 20 17 15 16 17 16 17 16 14 13 13 11 13 12 10 10 9 10 11 12 14 14 16 18 17 17 20 24 27 31
24 25 24 20 17 15 12 10 10 10 7 9 8 9 10 10 10 9 9 9 10 12 13 13 14 15 16 17 20 23 27 30
24 28 26 24 22 18 14 12 11 10 8 7 7 8 7 7 6 5 6 7 8 8 10 14 14 13 14 16 19 22 25 27
20 25 28 28 26 24 21 18 16 14 12 9 9 10 10 10 9 7 5 5 5 7 9 12 11 13 14 16 19 21 23 25
22 26 31 31 30 28 27 25 23 20 18 14 13 11 11 10 9 8 8 7 4 4 6 9 11 12 13 14 16 19 22 25
26 29 33 35 36 35 34 31 28 26 23 21 18 15 12 11 10 9 6 5 3 4 4 6 9 11 10 12 14 17 20 22
32 32 36 39 39 40 40 38 35 34 31 28 25 21 18 14 13 11 8 5 4 2 4 6 8 10 9 11 12 15 17 20
35 34 36 42 43 42 45 44 42 40 37 34 32 27 24 20 18 15 11 8 6 4 1 3 6 8 9 10 11 13 16 18
40 38 37 41 44 47 48 49 48 48 43 42 40 35 31 27 23 20 16 13 10 7 5 4 7 9 10 11 12 12 13 15
41 41 39 39 42 47 51 55 55 51 49 49 47 41 36 32 28 24 20 17 14 10 9 8 10 9 13 15 17 15 15 14
43 43 42 39 40 45 54 58 58 57 54 50 46 44 42 38 34 31 28 25 21 17 14 13 15 11 14 21 27 22 19 17
49 50 45 44 43 43 46 51 56 57 57 53 49 48 46 44 41 39 36 31 27 25 22 20 23 15 22 23 31 32 29 24
49 53 52 49 45 42 42 44 49 51 55 56 55 50 49 48 47 44 39 38 35 31 29 25 24 24 21 32 39 37 26 30
55 52 52 50 44 45 46 45 54 56 54 56 57 52 50 49 48 49 45 42 40 37 33 31 28 30 30 40 39 28 34 34
54 57 56 53 46 44 48 51 50 51 51 52 52 52 54 53 51 49 48 46 43 41 38 36 35 35 35 38 38 40 34 37
54 56 57 53 51 47 49 49 49 50 51 52 50 51 52 54 52 51 50 49 47 44 41 41 40 40 42 42 41 42 42 41
66 59 60 56 54 51 47 48 52 51 50 49 49 50 53 53 52 51 51 50 49 45 42 42 43 45 47 51 45 44 42 43
63 61 77 62 59 56 47 45 47 46 49 46 45 46 47 47 50 49 48 47 45 46 43 46 47 46 45 42 41 42 41 42
Wind_Direction
204 185 172 159 149 141 134 127 120 112 109 104 96 90 84 77 76 69 57 45 33 24 10 356 351 11 34 37 27 21 16 13
208 206 187 173 165 154 146 138 131 123 116 109 103 101 94 87 70 66 67 54 42 30 17 4 354 10 41 38 30 17 13 11
204 201 200 190 183 167 156 152 145 138 129 117 111 102 102 95 84 76 50 36 34 39 38 27 10 37 37 28 19 8 5 5
197 202 203 203 204 191 186 175 166 158 146 131 118 119 114 106 96 87 72 55 42 39 37 32 25 42 30 11 4 5 3 3
191 198 207 211 218 218 219 205 196 188 186 167 146 136 124 119 108 78 57 59 43 32 13 351 356 31 20 10 7 4 5 5
210 213 213 225 230 226 227 215 215 208 210 208 177 162 147 143 139 126 105 76 62 30 14 4 15 21 25 11 5 4 5 7
216 219 222 230 232 238 234 228 225 221 219 215 198 198 180 167 159 144 132 111 71 38 11 3 3 15 24 25 17 12 9 6
238 233 231 230 237 239 240 240 239 234 233 224 219 218 211 201 187 171 165 142 91 72 29 5 352 360 12 16 16 13 12 11
239 239 236 237 234 238 240 243 242 239 240 230 226 223 211 211 203 197 194 190 166 90 11 3 354 351 360 360 2 6 5 5
245 244 240 238 239 237 239 243 245 243 242 238 228 227 219 219 219 217 218 210 180 180 192 326 337 343 349 348 352 355 355 358
244 242 239 236 239 241 243 243 244 245 244 241 232 232 227 232 234 231 220 218 211 203 237 260 290 309 325 335 340 347 350 348
241 243 244 241 245 244 248 252 252 248 246 244 241 235 231 236 235 232 229 232 234 237 236 269 281 288 309 319 326 332 335 338
225 230 236 240 245 244 245 244 248 248 245 239 232 235 237 235 236 238 238 237 235 236 258 255 276 280 299 312 317 319 321 326
224 223 231 236 242 248 255 247 252 250 249 245 240 241 239 238 238 242 243 244 244 245 250 267 278 251 284 301 305 309 310 311
233 225 227 233 245 253 262 257 255 249 246 246 247 244 244 244 244 244 242 247 247 243 246 246 254 250 254 297 301 302 302 309
256 243 243 243 242 244 247 248 248 253 248 250 250 249 247 247 247 248 247 251 252 251 251 252 256 246 262 287 303 311 305 305
266 261 254 252 242 244 250 253 252 254 250 248 248 250 252 251 251 250 248 250 253 253 253 254 260 258 263 277 290 298 306 305
276 263 255 251 248 245 244 246 249 251 249 251 251 252 254 254 254 252 253 254 255 256 257 258 262 266 268 275 277 287 291 299
306 279 263 257 251 247 244 249 248 245 247 250 249 253 256 253 254 254 256 258 259 259 260 262 266 269 270 274 279 282 292 292
312 309 288 265 262 256 252 262 251 251 251 254 256 256 256 254 256 258 259 258 259 259 264 270 273 273 274 276 280 286 291 292